owner,sensor,date,latitude,longitude,vertical_datum,sea_water_temperature,qcFlag 
WAVCIS,ioos:station:WAVCIS:CSI16:2,2011-05-01T00:00:00Z,29.4012,-89.0355,10.0,23.444,11111222 
WAVCIS,ioos:station:WAVCIS:CSI16:2,2011-05-01T00:15:00Z,29.4012,-89.0355,10.0,23.421,11111222 
WAVCIS,ioos:station:WAVCIS:CSI16:2,2011-05-01T00:30:00Z,29.4012,-89.0355,10.0,23.397,11111222 
WAVCIS,ioos:station:WAVCIS:CSI16:2,2011-05-01T00:45:00Z,29.4012,-89.0355,10.0,23.382,11111222 
WAVCIS,ioos:station:WAVCIS:CSI16:2,2011-05-01T01:00:00Z,29.4012,-89.0355,10.0,23.376,11111222 
WAVCIS,ioos:station:WAVCIS:CSI16:2,2011-05-01T01:15:00Z,29.4012,-89.0355,10.0,23.366,11111222 
WAVCIS,ioos:station:WAVCIS:CSI16:2,2011-05-01T01:30:00Z,29.4012,-89.0355,10.0,23.363,11111222 
WAVCIS,ioos:station:WAVCIS:CSI16:2,2011-05-01T01:45:00Z,29.4012,-89.0355,10.0,23.385,11111222 
WAVCIS,ioos:station:WAVCIS:CSI16:2,2011-05-01T02:00:00Z,29.4012,-89.0355,10.0,23.4,11111222 
WAVCIS,ioos:station:WAVCIS:CSI16:2,2011-05-01T02:15:00Z,29.4012,-89.0355,10.0,23.346,11111222 
WAVCIS,ioos:station:WAVCIS:CSI16:2,2011-05-01T02:30:00Z,29.4012,-89.0355,10.0,23.339,11111222 
WAVCIS,ioos:station:WAVCIS:CSI16:2,2011-05-01T02:45:00Z,29.4012,-89.0355,10.0,23.333,11111222 
WAVCIS,ioos:station:WAVCIS:CSI16:2,2011-05-01T03:00:00Z,29.4012,-89.0355,10.0,23.312,11111222 
WAVCIS,ioos:station:WAVCIS:CSI16:2,2011-05-01T03:15:00Z,29.4012,-89.0355,10.0,23.307,11111222 
WAVCIS,ioos:station:WAVCIS:CSI16:2,2011-05-01T03:30:00Z,29.4012,-89.0355,10.0,23.317,11111222 
WAVCIS,ioos:station:WAVCIS:CSI16:2,2011-05-01T03:45:00Z,29.4012,-89.0355,10.0,23.308,11111222 
WAVCIS,ioos:station:WAVCIS:CSI16:2,2011-05-01T04:00:00Z,29.4012,-89.0355,10.0,23.293,11111222 
WAVCIS,ioos:station:WAVCIS:CSI16:2,2011-05-01T04:15:00Z,29.4012,-89.0355,10.0,23.295,11111222 
WAVCIS,ioos:station:WAVCIS:CSI16:2,2011-05-01T04:30:00Z,29.4012,-89.0355,10.0,23.313,11111222 
WAVCIS,ioos:station:WAVCIS:CSI16:2,2011-05-01T04:45:00Z,29.4012,-89.0355,10.0,23.322,11111222 
WAVCIS,ioos:station:WAVCIS:CSI16:2,2011-05-01T05:00:00Z,29.4012,-89.0355,10.0,23.337,11111222 
WAVCIS,ioos:station:WAVCIS:CSI16:2,2011-05-01T05:15:00Z,29.4012,-89.0355,10.0,23.33,11111222 
WAVCIS,ioos:station:WAVCIS:CSI16:2,2011-05-01T05:30:00Z,29.4012,-89.0355,10.0,23.347,11111222 
WAVCIS,ioos:station:WAVCIS:CSI16:2,2011-05-01T05:45:00Z,29.4012,-89.0355,10.0,23.321,11111222 
WAVCIS,ioos:station:WAVCIS:CSI16:2,2011-05-01T06:00:00Z,29.4012,-89.0355,10.0,23.336,11111222 
WAVCIS,ioos:station:WAVCIS:CSI16:2,2011-05-01T06:15:00Z,29.4012,-89.0355,10.0,23.359,11111222 
WAVCIS,ioos:station:WAVCIS:CSI16:2,2011-05-01T06:30:00Z,29.4012,-89.0355,10.0,23.353,11111222 
WAVCIS,ioos:station:WAVCIS:CSI16:2,2011-05-01T06:45:00Z,29.4012,-89.0355,10.0,23.376,11111222 
WAVCIS,ioos:station:WAVCIS:CSI16:2,2011-05-01T07:00:00Z,29.4012,-89.0355,10.0,23.403,11111222 
WAVCIS,ioos:station:WAVCIS:CSI16:2,2011-05-01T07:15:00Z,29.4012,-89.0355,10.0,23.352,11111222 
WAVCIS,ioos:station:WAVCIS:CSI16:2,2011-05-01T07:30:00Z,29.4012,-89.0355,10.0,23.317,11111222 
WAVCIS,ioos:station:WAVCIS:CSI16:2,2011-05-01T07:45:00Z,29.4012,-89.0355,10.0,23.332,11111222 
WAVCIS,ioos:station:WAVCIS:CSI16:2,2011-05-01T08:00:00Z,29.4012,-89.0355,10.0,23.286,11111222 
WAVCIS,ioos:station:WAVCIS:CSI16:2,2011-05-01T08:15:00Z,29.4012,-89.0355,10.0,23.278,11111222 
WAVCIS,ioos:station:WAVCIS:CSI16:2,2011-05-01T08:30:00Z,29.4012,-89.0355,10.0,23.303,11111222 
WAVCIS,ioos:station:WAVCIS:CSI16:2,2011-05-01T08:45:00Z,29.4012,-89.0355,10.0,23.275,11111222 
WAVCIS,ioos:station:WAVCIS:CSI16:2,2011-05-01T09:00:00Z,29.4012,-89.0355,10.0,23.278,11111222 
WAVCIS,ioos:station:WAVCIS:CSI16:2,2011-05-01T09:15:00Z,29.4012,-89.0355,10.0,23.264,11111222 
WAVCIS,ioos:station:WAVCIS:CSI16:2,2011-05-01T09:30:00Z,29.4012,-89.0355,10.0,23.26,11111222 
WAVCIS,ioos:station:WAVCIS:CSI16:2,2011-05-01T09:45:00Z,29.4012,-89.0355,10.0,23.269,11111222 
WAVCIS,ioos:station:WAVCIS:CSI16:2,2011-05-01T10:00:00Z,29.4012,-89.0355,10.0,23.267,11111222 
WAVCIS,ioos:station:WAVCIS:CSI16:2,2011-05-01T10:15:00Z,29.4012,-89.0355,10.0,23.259,11111222 
WAVCIS,ioos:station:WAVCIS:CSI16:2,2011-05-01T10:30:00Z,29.4012,-89.0355,10.0,23.255,11111222 
WAVCIS,ioos:station:WAVCIS:CSI16:2,2011-05-01T10:45:00Z,29.4012,-89.0355,10.0,23.256,11111222 
WAVCIS,ioos:station:WAVCIS:CSI16:2,2011-05-01T11:00:00Z,29.4012,-89.0355,10.0,23.255,11111222 
WAVCIS,ioos:station:WAVCIS:CSI16:2,2011-05-01T11:15:00Z,29.4012,-89.0355,10.0,23.258,11111222 
WAVCIS,ioos:station:WAVCIS:CSI16:2,2011-05-01T11:30:00Z,29.4012,-89.0355,10.0,23.258,11111222 
WAVCIS,ioos:station:WAVCIS:CSI16:2,2011-05-01T11:45:00Z,29.4012,-89.0355,10.0,23.247,11111222 
WAVCIS,ioos:station:WAVCIS:CSI16:2,2011-05-01T12:00:00Z,29.4012,-89.0355,10.0,23.24,11111222 
WAVCIS,ioos:station:WAVCIS:CSI16:2,2011-05-01T12:15:00Z,29.4012,-89.0355,10.0,23.266,11111222 
WAVCIS,ioos:station:WAVCIS:CSI16:2,2011-05-01T12:30:00Z,29.4012,-89.0355,10.0,23.251,11111222 
WAVCIS,ioos:station:WAVCIS:CSI16:2,2011-05-01T12:45:00Z,29.4012,-89.0355,10.0,23.252,11111222 
WAVCIS,ioos:station:WAVCIS:CSI16:2,2011-05-01T13:00:00Z,29.4012,-89.0355,10.0,23.255,11111222 
WAVCIS,ioos:station:WAVCIS:CSI16:2,2011-05-01T13:15:00Z,29.4012,-89.0355,10.0,23.252,11111222 
WAVCIS,ioos:station:WAVCIS:CSI16:2,2011-05-01T13:30:00Z,29.4012,-89.0355,10.0,23.251,11111222 
WAVCIS,ioos:station:WAVCIS:CSI16:2,2011-05-01T13:45:00Z,29.4012,-89.0355,10.0,23.24,11111222 
WAVCIS,ioos:station:WAVCIS:CSI16:2,2011-05-01T14:00:00Z,29.4012,-89.0355,10.0,23.239,11111222 
WAVCIS,ioos:station:WAVCIS:CSI16:2,2011-05-01T14:15:00Z,29.4012,-89.0355,10.0,23.227,11111222 
WAVCIS,ioos:station:WAVCIS:CSI16:2,2011-05-01T14:30:00Z,29.4012,-89.0355,10.0,23.237,11111222 
WAVCIS,ioos:station:WAVCIS:CSI16:2,2011-05-01T14:45:00Z,29.4012,-89.0355,10.0,23.234,11111222 
WAVCIS,ioos:station:WAVCIS:CSI16:2,2011-05-01T15:00:00Z,29.4012,-89.0355,10.0,23.234,11111222 
WAVCIS,ioos:station:WAVCIS:CSI16:2,2011-05-01T15:15:00Z,29.4012,-89.0355,10.0,23.234,11111222 
WAVCIS,ioos:station:WAVCIS:CSI16:2,2011-05-01T15:30:00Z,29.4012,-89.0355,10.0,23.246,11111222 
WAVCIS,ioos:station:WAVCIS:CSI16:2,2011-05-01T15:45:00Z,29.4012,-89.0355,10.0,23.256,11111222 
WAVCIS,ioos:station:WAVCIS:CSI16:2,2011-05-01T16:00:00Z,29.4012,-89.0355,10.0,23.274,11111222 
WAVCIS,ioos:station:WAVCIS:CSI16:2,2011-05-01T16:15:00Z,29.4012,-89.0355,10.0,23.288,11111222 
WAVCIS,ioos:station:WAVCIS:CSI16:2,2011-05-01T16:30:00Z,29.4012,-89.0355,10.0,23.295,11111222 
WAVCIS,ioos:station:WAVCIS:CSI16:2,2011-05-01T16:45:00Z,29.4012,-89.0355,10.0,23.316,11111222 
WAVCIS,ioos:station:WAVCIS:CSI16:2,2011-05-01T17:00:00Z,29.4012,-89.0355,10.0,23.31,11111222 
WAVCIS,ioos:station:WAVCIS:CSI16:2,2011-05-01T17:15:00Z,29.4012,-89.0355,10.0,23.31,11111222 
WAVCIS,ioos:station:WAVCIS:CSI16:2,2011-05-01T17:30:00Z,29.4012,-89.0355,10.0,23.309,11111222 
WAVCIS,ioos:station:WAVCIS:CSI16:2,2011-05-01T17:45:00Z,29.4012,-89.0355,10.0,23.324,11111222 
WAVCIS,ioos:station:WAVCIS:CSI16:2,2011-05-01T18:00:00Z,29.4012,-89.0355,10.0,23.343,11111222 
WAVCIS,ioos:station:WAVCIS:CSI16:2,2011-05-01T18:15:00Z,29.4012,-89.0355,10.0,23.338,11111222 
WAVCIS,ioos:station:WAVCIS:CSI16:2,2011-05-01T18:30:00Z,29.4012,-89.0355,10.0,23.329,11111222 
WAVCIS,ioos:station:WAVCIS:CSI16:2,2011-05-01T18:45:00Z,29.4012,-89.0355,10.0,23.327,11111222 
WAVCIS,ioos:station:WAVCIS:CSI16:2,2011-05-01T19:00:00Z,29.4012,-89.0355,10.0,23.342,11111222 
WAVCIS,ioos:station:WAVCIS:CSI16:2,2011-05-01T19:15:00Z,29.4012,-89.0355,10.0,23.339,11111222 
WAVCIS,ioos:station:WAVCIS:CSI16:2,2011-05-01T19:30:00Z,29.4012,-89.0355,10.0,23.348,11111222 
WAVCIS,ioos:station:WAVCIS:CSI16:2,2011-05-01T19:45:00Z,29.4012,-89.0355,10.0,23.355,11111222 
WAVCIS,ioos:station:WAVCIS:CSI16:2,2011-05-01T20:00:00Z,29.4012,-89.0355,10.0,23.355,11111222 
WAVCIS,ioos:station:WAVCIS:CSI16:2,2011-05-01T20:15:00Z,29.4012,-89.0355,10.0,23.36,11111222 
WAVCIS,ioos:station:WAVCIS:CSI16:2,2011-05-01T20:30:00Z,29.4012,-89.0355,10.0,23.371,11111222 
WAVCIS,ioos:station:WAVCIS:CSI16:2,2011-05-01T20:45:00Z,29.4012,-89.0355,10.0,23.378,11111222 
WAVCIS,ioos:station:WAVCIS:CSI16:2,2011-05-01T21:00:00Z,29.4012,-89.0355,10.0,23.393,11111222 
WAVCIS,ioos:station:WAVCIS:CSI16:2,2011-05-01T21:15:00Z,29.4012,-89.0355,10.0,23.348,11111222 
WAVCIS,ioos:station:WAVCIS:CSI16:2,2011-05-01T21:30:00Z,29.4012,-89.0355,10.0,23.346,11111222 
WAVCIS,ioos:station:WAVCIS:CSI16:2,2011-05-01T21:45:00Z,29.4012,-89.0355,10.0,23.345,11111222 
WAVCIS,ioos:station:WAVCIS:CSI16:2,2011-05-01T22:00:00Z,29.4012,-89.0355,10.0,23.352,11111222 
WAVCIS,ioos:station:WAVCIS:CSI16:2,2011-05-01T22:15:00Z,29.4012,-89.0355,10.0,23.354,11111222 
WAVCIS,ioos:station:WAVCIS:CSI16:2,2011-05-01T22:30:00Z,29.4012,-89.0355,10.0,23.358,11111222 
WAVCIS,ioos:station:WAVCIS:CSI16:2,2011-05-01T22:45:00Z,29.4012,-89.0355,10.0,23.354,11111222 
WAVCIS,ioos:station:WAVCIS:CSI16:2,2011-05-01T23:00:00Z,29.4012,-89.0355,10.0,23.358,11111222 
WAVCIS,ioos:station:WAVCIS:CSI16:2,2011-05-01T23:15:00Z,29.4012,-89.0355,10.0,23.36,11111222 
WAVCIS,ioos:station:WAVCIS:CSI16:2,2011-05-01T23:30:00Z,29.4012,-89.0355,10.0,23.364,11111222 
WAVCIS,ioos:station:WAVCIS:CSI16:2,2011-05-01T23:45:00Z,29.4012,-89.0355,10.0,23.37,11111222 
WAVCIS,ioos:station:WAVCIS:CSI16:2,2011-05-02T00:00:00Z,29.4012,-89.0355,10.0,23.384,11111222 
WAVCIS,ioos:station:WAVCIS:CSI16:2,2011-05-02T00:15:00Z,29.4012,-89.0355,10.0,23.396,11111222 
WAVCIS,ioos:station:WAVCIS:CSI16:2,2011-05-02T00:30:00Z,29.4012,-89.0355,10.0,23.493,11111222 
WAVCIS,ioos:station:WAVCIS:CSI16:2,2011-05-02T00:45:00Z,29.4012,-89.0355,10.0,23.501,11111222 
WAVCIS,ioos:station:WAVCIS:CSI16:2,2011-05-02T01:00:00Z,29.4012,-89.0355,10.0,23.465,11111222 
WAVCIS,ioos:station:WAVCIS:CSI16:2,2011-05-02T01:15:00Z,29.4012,-89.0355,10.0,23.451,11111222 
WAVCIS,ioos:station:WAVCIS:CSI16:2,2011-05-02T01:30:00Z,29.4012,-89.0355,10.0,23.431,11111222 
WAVCIS,ioos:station:WAVCIS:CSI16:2,2011-05-02T01:45:00Z,29.4012,-89.0355,10.0,23.424,11111222 
WAVCIS,ioos:station:WAVCIS:CSI16:2,2011-05-02T02:00:00Z,29.4012,-89.0355,10.0,23.421,11111222 
WAVCIS,ioos:station:WAVCIS:CSI16:2,2011-05-02T02:15:00Z,29.4012,-89.0355,10.0,23.418,11111222 
WAVCIS,ioos:station:WAVCIS:CSI16:2,2011-05-02T02:30:00Z,29.4012,-89.0355,10.0,23.419,11111222 
WAVCIS,ioos:station:WAVCIS:CSI16:2,2011-05-02T02:45:00Z,29.4012,-89.0355,10.0,23.409,11111222 
WAVCIS,ioos:station:WAVCIS:CSI16:2,2011-05-02T03:00:00Z,29.4012,-89.0355,10.0,23.41,11111222 
WAVCIS,ioos:station:WAVCIS:CSI16:2,2011-05-02T03:15:00Z,29.4012,-89.0355,10.0,23.404,11111222 
WAVCIS,ioos:station:WAVCIS:CSI16:2,2011-05-02T03:30:00Z,29.4012,-89.0355,10.0,23.403,11111222 
WAVCIS,ioos:station:WAVCIS:CSI16:2,2011-05-02T03:45:00Z,29.4012,-89.0355,10.0,23.4,11111222 
WAVCIS,ioos:station:WAVCIS:CSI16:2,2011-05-02T04:00:00Z,29.4012,-89.0355,10.0,23.397,11111222 
WAVCIS,ioos:station:WAVCIS:CSI16:2,2011-05-02T04:15:00Z,29.4012,-89.0355,10.0,23.397,11111222 
WAVCIS,ioos:station:WAVCIS:CSI16:2,2011-05-02T04:30:00Z,29.4012,-89.0355,10.0,23.385,11111222 
WAVCIS,ioos:station:WAVCIS:CSI16:2,2011-05-02T04:45:00Z,29.4012,-89.0355,10.0,23.378,11111222 
WAVCIS,ioos:station:WAVCIS:CSI16:2,2011-05-02T05:00:00Z,29.4012,-89.0355,10.0,23.362,11111222 
WAVCIS,ioos:station:WAVCIS:CSI16:2,2011-05-02T05:15:00Z,29.4012,-89.0355,10.0,23.347,11111222 
WAVCIS,ioos:station:WAVCIS:CSI16:2,2011-05-02T05:30:00Z,29.4012,-89.0355,10.0,23.376,11111222 
WAVCIS,ioos:station:WAVCIS:CSI16:2,2011-05-02T05:45:00Z,29.4012,-89.0355,10.0,23.417,11111222 
WAVCIS,ioos:station:WAVCIS:CSI16:2,2011-05-02T06:00:00Z,29.4012,-89.0355,10.0,23.465,11111222 
WAVCIS,ioos:station:WAVCIS:CSI16:2,2011-05-02T06:15:00Z,29.4012,-89.0355,10.0,23.521,11111222 
WAVCIS,ioos:station:WAVCIS:CSI16:2,2011-05-02T06:30:00Z,29.4012,-89.0355,10.0,23.539,11111222 
WAVCIS,ioos:station:WAVCIS:CSI16:2,2011-05-02T06:45:00Z,29.4012,-89.0355,10.0,23.544,11111222 
WAVCIS,ioos:station:WAVCIS:CSI16:2,2011-05-02T07:00:00Z,29.4012,-89.0355,10.0,23.607,11111222 
WAVCIS,ioos:station:WAVCIS:CSI16:2,2011-05-02T07:15:00Z,29.4012,-89.0355,10.0,23.627,11111222 
WAVCIS,ioos:station:WAVCIS:CSI16:2,2011-05-02T07:30:00Z,29.4012,-89.0355,10.0,23.549,11111222 
WAVCIS,ioos:station:WAVCIS:CSI16:2,2011-05-02T07:45:00Z,29.4012,-89.0355,10.0,23.488,11111222 
WAVCIS,ioos:station:WAVCIS:CSI16:2,2011-05-02T08:00:00Z,29.4012,-89.0355,10.0,23.45,11111222 
WAVCIS,ioos:station:WAVCIS:CSI16:2,2011-05-02T08:15:00Z,29.4012,-89.0355,10.0,23.428,11111222 
WAVCIS,ioos:station:WAVCIS:CSI16:2,2011-05-02T08:30:00Z,29.4012,-89.0355,10.0,23.415,11111222 
WAVCIS,ioos:station:WAVCIS:CSI16:2,2011-05-02T08:45:00Z,29.4012,-89.0355,10.0,23.418,11111222 
WAVCIS,ioos:station:WAVCIS:CSI16:2,2011-05-02T09:00:00Z,29.4012,-89.0355,10.0,23.43,11111222 
WAVCIS,ioos:station:WAVCIS:CSI16:2,2011-05-02T09:15:00Z,29.4012,-89.0355,10.0,23.595,11111222 
WAVCIS,ioos:station:WAVCIS:CSI16:2,2011-05-02T09:30:00Z,29.4012,-89.0355,10.0,23.677,11111222 
WAVCIS,ioos:station:WAVCIS:CSI16:2,2011-05-02T09:45:00Z,29.4012,-89.0355,10.0,23.756,11111222 
WAVCIS,ioos:station:WAVCIS:CSI16:2,2011-05-02T10:00:00Z,29.4012,-89.0355,10.0,23.726,11111222 
WAVCIS,ioos:station:WAVCIS:CSI16:2,2011-05-02T10:15:00Z,29.4012,-89.0355,10.0,23.612,11111222 
WAVCIS,ioos:station:WAVCIS:CSI16:2,2011-05-02T10:30:00Z,29.4012,-89.0355,10.0,23.537,11111222 
WAVCIS,ioos:station:WAVCIS:CSI16:2,2011-05-02T10:45:00Z,29.4012,-89.0355,10.0,23.555,11111222 
WAVCIS,ioos:station:WAVCIS:CSI16:2,2011-05-02T11:00:00Z,29.4012,-89.0355,10.0,23.51,11111222 
WAVCIS,ioos:station:WAVCIS:CSI16:2,2011-05-02T11:15:00Z,29.4012,-89.0355,10.0,23.568,11111222 
WAVCIS,ioos:station:WAVCIS:CSI16:2,2011-05-02T11:30:00Z,29.4012,-89.0355,10.0,23.523,11111222 
WAVCIS,ioos:station:WAVCIS:CSI16:2,2011-05-02T11:45:00Z,29.4012,-89.0355,10.0,23.517,11111222 
WAVCIS,ioos:station:WAVCIS:CSI16:2,2011-05-02T12:00:00Z,29.4012,-89.0355,10.0,23.496,11111222 
WAVCIS,ioos:station:WAVCIS:CSI16:2,2011-05-02T12:15:00Z,29.4012,-89.0355,10.0,23.579,11111222 
WAVCIS,ioos:station:WAVCIS:CSI16:2,2011-05-02T12:30:00Z,29.4012,-89.0355,10.0,23.524,11111222 
WAVCIS,ioos:station:WAVCIS:CSI16:2,2011-05-02T12:45:00Z,29.4012,-89.0355,10.0,23.542,11111222 
WAVCIS,ioos:station:WAVCIS:CSI16:2,2011-05-02T13:00:00Z,29.4012,-89.0355,10.0,23.539,11111222 
WAVCIS,ioos:station:WAVCIS:CSI16:2,2011-05-02T13:15:00Z,29.4012,-89.0355,10.0,23.589,11111222 
WAVCIS,ioos:station:WAVCIS:CSI16:2,2011-05-02T13:30:00Z,29.4012,-89.0355,10.0,23.551,11111222 
WAVCIS,ioos:station:WAVCIS:CSI16:2,2011-05-02T13:45:00Z,29.4012,-89.0355,10.0,23.491,11111222 
WAVCIS,ioos:station:WAVCIS:CSI16:2,2011-05-02T14:00:00Z,29.4012,-89.0355,10.0,23.5,11111222 
WAVCIS,ioos:station:WAVCIS:CSI16:2,2011-05-02T14:15:00Z,29.4012,-89.0355,10.0,23.515,11111222 
WAVCIS,ioos:station:WAVCIS:CSI16:2,2011-05-02T14:30:00Z,29.4012,-89.0355,10.0,23.511,11111222 
WAVCIS,ioos:station:WAVCIS:CSI16:2,2011-05-02T14:45:00Z,29.4012,-89.0355,10.0,23.5,11111222 
WAVCIS,ioos:station:WAVCIS:CSI16:2,2011-05-02T15:00:00Z,29.4012,-89.0355,10.0,23.507,11111222 
WAVCIS,ioos:station:WAVCIS:CSI16:2,2011-05-02T15:15:00Z,29.4012,-89.0355,10.0,23.497,11111222 
WAVCIS,ioos:station:WAVCIS:CSI16:2,2011-05-02T15:30:00Z,29.4012,-89.0355,10.0,23.515,11111222 
WAVCIS,ioos:station:WAVCIS:CSI16:2,2011-05-02T15:45:00Z,29.4012,-89.0355,10.0,23.513,11111222 
WAVCIS,ioos:station:WAVCIS:CSI16:2,2011-05-02T16:00:00Z,29.4012,-89.0355,10.0,23.543,11111222 
WAVCIS,ioos:station:WAVCIS:CSI16:2,2011-05-02T16:15:00Z,29.4012,-89.0355,10.0,23.539,11111222 
WAVCIS,ioos:station:WAVCIS:CSI16:2,2011-05-02T16:30:00Z,29.4012,-89.0355,10.0,23.568,11111222 
WAVCIS,ioos:station:WAVCIS:CSI16:2,2011-05-02T16:45:00Z,29.4012,-89.0355,10.0,23.563,11111222 
WAVCIS,ioos:station:WAVCIS:CSI16:2,2011-05-02T17:00:00Z,29.4012,-89.0355,10.0,23.555,11111222 
WAVCIS,ioos:station:WAVCIS:CSI16:2,2011-05-02T17:15:00Z,29.4012,-89.0355,10.0,23.577,11111222 
WAVCIS,ioos:station:WAVCIS:CSI16:2,2011-05-02T17:30:00Z,29.4012,-89.0355,10.0,23.571,11111222 
WAVCIS,ioos:station:WAVCIS:CSI16:2,2011-05-02T17:45:00Z,29.4012,-89.0355,10.0,23.617,11111222 
WAVCIS,ioos:station:WAVCIS:CSI16:2,2011-05-02T18:00:00Z,29.4012,-89.0355,10.0,23.601,11111222 
WAVCIS,ioos:station:WAVCIS:CSI16:2,2011-05-02T18:15:00Z,29.4012,-89.0355,10.0,23.661,11111222 
WAVCIS,ioos:station:WAVCIS:CSI16:2,2011-05-02T18:30:00Z,29.4012,-89.0355,10.0,23.674,11111222 
WAVCIS,ioos:station:WAVCIS:CSI16:2,2011-05-02T18:45:00Z,29.4012,-89.0355,10.0,23.706,11111222 
WAVCIS,ioos:station:WAVCIS:CSI16:2,2011-05-02T19:00:00Z,29.4012,-89.0355,10.0,23.737,11111222 
WAVCIS,ioos:station:WAVCIS:CSI16:2,2011-05-02T19:15:00Z,29.4012,-89.0355,10.0,23.689,11111222 
WAVCIS,ioos:station:WAVCIS:CSI16:2,2011-05-02T19:30:00Z,29.4012,-89.0355,10.0,23.686,11111222 
WAVCIS,ioos:station:WAVCIS:CSI16:2,2011-05-02T19:45:00Z,29.4012,-89.0355,10.0,23.77,11111222 
WAVCIS,ioos:station:WAVCIS:CSI16:2,2011-05-02T20:00:00Z,29.4012,-89.0355,10.0,23.775,11111222 
WAVCIS,ioos:station:WAVCIS:CSI16:2,2011-05-02T20:15:00Z,29.4012,-89.0355,10.0,23.809,11111222 
WAVCIS,ioos:station:WAVCIS:CSI16:2,2011-05-02T20:30:00Z,29.4012,-89.0355,10.0,23.808,11111222 
WAVCIS,ioos:station:WAVCIS:CSI16:2,2011-05-02T20:45:00Z,29.4012,-89.0355,10.0,23.817,11111222 
WAVCIS,ioos:station:WAVCIS:CSI16:2,2011-05-02T21:00:00Z,29.4012,-89.0355,10.0,23.815,11111222 
WAVCIS,ioos:station:WAVCIS:CSI16:2,2011-05-02T21:15:00Z,29.4012,-89.0355,10.0,23.815,11111222 
WAVCIS,ioos:station:WAVCIS:CSI16:2,2011-05-02T21:30:00Z,29.4012,-89.0355,10.0,23.807,11111222 
WAVCIS,ioos:station:WAVCIS:CSI16:2,2011-05-02T21:45:00Z,29.4012,-89.0355,10.0,23.798,11111222 
WAVCIS,ioos:station:WAVCIS:CSI16:2,2011-05-02T22:00:00Z,29.4012,-89.0355,10.0,23.79,11111222 
WAVCIS,ioos:station:WAVCIS:CSI16:2,2011-05-02T22:15:00Z,29.4012,-89.0355,10.0,23.774,11111222 
WAVCIS,ioos:station:WAVCIS:CSI16:2,2011-05-02T22:30:00Z,29.4012,-89.0355,10.0,23.755,11111222 
WAVCIS,ioos:station:WAVCIS:CSI16:2,2011-05-02T22:45:00Z,29.4012,-89.0355,10.0,23.733,11111222 
WAVCIS,ioos:station:WAVCIS:CSI16:2,2011-05-02T23:00:00Z,29.4012,-89.0355,10.0,23.802,11111222 
WAVCIS,ioos:station:WAVCIS:CSI16:2,2011-05-02T23:15:00Z,29.4012,-89.0355,10.0,23.794,11111222 
WAVCIS,ioos:station:WAVCIS:CSI16:2,2011-05-02T23:30:00Z,29.4012,-89.0355,10.0,23.753,11111222 
WAVCIS,ioos:station:WAVCIS:CSI16:2,2011-05-02T23:45:00Z,29.4012,-89.0355,10.0,23.74,11111222 
WAVCIS,ioos:station:WAVCIS:CSI16:2,2011-05-03T00:00:00Z,29.4012,-89.0355,10.0,23.734,11111222 
WAVCIS,ioos:station:WAVCIS:CSI16:2,2011-05-03T00:15:00Z,29.4012,-89.0355,10.0,23.777,11111222 
WAVCIS,ioos:station:WAVCIS:CSI16:2,2011-05-03T00:30:00Z,29.4012,-89.0355,10.0,23.719,11111222 
WAVCIS,ioos:station:WAVCIS:CSI16:2,2011-05-03T00:45:00Z,29.4012,-89.0355,10.0,23.699,11111222 
WAVCIS,ioos:station:WAVCIS:CSI16:2,2011-05-03T01:00:00Z,29.4012,-89.0355,10.0,23.649,11111222 
WAVCIS,ioos:station:WAVCIS:CSI16:2,2011-05-03T01:15:00Z,29.4012,-89.0355,10.0,23.645,11111222 
WAVCIS,ioos:station:WAVCIS:CSI16:2,2011-05-03T01:30:00Z,29.4012,-89.0355,10.0,23.652,11111222 
WAVCIS,ioos:station:WAVCIS:CSI16:2,2011-05-03T01:45:00Z,29.4012,-89.0355,10.0,23.624,11111222 
WAVCIS,ioos:station:WAVCIS:CSI16:2,2011-05-03T02:00:00Z,29.4012,-89.0355,10.0,23.63,11111222 
WAVCIS,ioos:station:WAVCIS:CSI16:2,2011-05-03T02:15:00Z,29.4012,-89.0355,10.0,23.621,11111222 
WAVCIS,ioos:station:WAVCIS:CSI16:2,2011-05-03T02:30:00Z,29.4012,-89.0355,10.0,23.622,11111222 
WAVCIS,ioos:station:WAVCIS:CSI16:2,2011-05-03T02:45:00Z,29.4012,-89.0355,10.0,23.618,11111222 
WAVCIS,ioos:station:WAVCIS:CSI16:2,2011-05-03T03:00:00Z,29.4012,-89.0355,10.0,23.734,11111222 
WAVCIS,ioos:station:WAVCIS:CSI16:2,2011-05-03T03:15:00Z,29.4012,-89.0355,10.0,23.744,11111222 
WAVCIS,ioos:station:WAVCIS:CSI16:2,2011-05-03T03:30:00Z,29.4012,-89.0355,10.0,23.66,11111222 
WAVCIS,ioos:station:WAVCIS:CSI16:2,2011-05-03T03:45:00Z,29.4012,-89.0355,10.0,23.732,11111222 
WAVCIS,ioos:station:WAVCIS:CSI16:2,2011-05-03T04:00:00Z,29.4012,-89.0355,10.0,23.73,11111222 
WAVCIS,ioos:station:WAVCIS:CSI16:2,2011-05-03T04:15:00Z,29.4012,-89.0355,10.0,23.624,11111222 
WAVCIS,ioos:station:WAVCIS:CSI16:2,2011-05-03T04:30:00Z,29.4012,-89.0355,10.0,23.589,11111222 
WAVCIS,ioos:station:WAVCIS:CSI16:2,2011-05-03T04:45:00Z,29.4012,-89.0355,10.0,23.628,11111222 
WAVCIS,ioos:station:WAVCIS:CSI16:2,2011-05-03T05:00:00Z,29.4012,-89.0355,10.0,23.659,11111222 
WAVCIS,ioos:station:WAVCIS:CSI16:2,2011-05-03T05:15:00Z,29.4012,-89.0355,10.0,23.674,11111222 
WAVCIS,ioos:station:WAVCIS:CSI16:2,2011-05-03T05:30:00Z,29.4012,-89.0355,10.0,23.635,11111222 
WAVCIS,ioos:station:WAVCIS:CSI16:2,2011-05-03T05:45:00Z,29.4012,-89.0355,10.0,23.661,11111222 
WAVCIS,ioos:station:WAVCIS:CSI16:2,2011-05-03T06:00:00Z,29.4012,-89.0355,10.0,23.729,11111222 
WAVCIS,ioos:station:WAVCIS:CSI16:2,2011-05-03T06:15:00Z,29.4012,-89.0355,10.0,23.705,11111222 
WAVCIS,ioos:station:WAVCIS:CSI16:2,2011-05-03T06:30:00Z,29.4012,-89.0355,10.0,23.709,11111222 
WAVCIS,ioos:station:WAVCIS:CSI16:2,2011-05-03T06:45:00Z,29.4012,-89.0355,10.0,23.701,11111222 
WAVCIS,ioos:station:WAVCIS:CSI16:2,2011-05-03T07:00:00Z,29.4012,-89.0355,10.0,23.725,11111222 
WAVCIS,ioos:station:WAVCIS:CSI16:2,2011-05-03T07:15:00Z,29.4012,-89.0355,10.0,23.714,11111222 
WAVCIS,ioos:station:WAVCIS:CSI16:2,2011-05-03T07:30:00Z,29.4012,-89.0355,10.0,23.702,11111222 
WAVCIS,ioos:station:WAVCIS:CSI16:2,2011-05-03T07:45:00Z,29.4012,-89.0355,10.0,23.755,11111222 
WAVCIS,ioos:station:WAVCIS:CSI16:2,2011-05-03T08:00:00Z,29.4012,-89.0355,10.0,23.771,11111222 
WAVCIS,ioos:station:WAVCIS:CSI16:2,2011-05-03T08:15:00Z,29.4012,-89.0355,10.0,23.755,11111222 
WAVCIS,ioos:station:WAVCIS:CSI16:2,2011-05-03T08:30:00Z,29.4012,-89.0355,10.0,23.772,11111222 
WAVCIS,ioos:station:WAVCIS:CSI16:2,2011-05-03T08:45:00Z,29.4012,-89.0355,10.0,23.789,11111222 
WAVCIS,ioos:station:WAVCIS:CSI16:2,2011-05-03T09:00:00Z,29.4012,-89.0355,10.0,23.781,11111222 
WAVCIS,ioos:station:WAVCIS:CSI16:2,2011-05-03T09:15:00Z,29.4012,-89.0355,10.0,23.761,11111222 
WAVCIS,ioos:station:WAVCIS:CSI16:2,2011-05-03T09:30:00Z,29.4012,-89.0355,10.0,23.766,11111222 
WAVCIS,ioos:station:WAVCIS:CSI16:2,2011-05-03T09:45:00Z,29.4012,-89.0355,10.0,23.774,11111222 
WAVCIS,ioos:station:WAVCIS:CSI16:2,2011-05-03T10:00:00Z,29.4012,-89.0355,10.0,23.79,11111222 
WAVCIS,ioos:station:WAVCIS:CSI16:2,2011-05-03T10:15:00Z,29.4012,-89.0355,10.0,23.788,11111222 
WAVCIS,ioos:station:WAVCIS:CSI16:2,2011-05-03T10:30:00Z,29.4012,-89.0355,10.0,23.783,11111222 
WAVCIS,ioos:station:WAVCIS:CSI16:2,2011-05-03T10:45:00Z,29.4012,-89.0355,10.0,23.809,11111222 
WAVCIS,ioos:station:WAVCIS:CSI16:2,2011-05-03T11:00:00Z,29.4012,-89.0355,10.0,23.81,11111222 
WAVCIS,ioos:station:WAVCIS:CSI16:2,2011-05-03T11:15:00Z,29.4012,-89.0355,10.0,23.829,11111222 
WAVCIS,ioos:station:WAVCIS:CSI16:2,2011-05-03T11:30:00Z,29.4012,-89.0355,10.0,23.833,11111222 
WAVCIS,ioos:station:WAVCIS:CSI16:2,2011-05-03T11:45:00Z,29.4012,-89.0355,10.0,23.833,11111222 
WAVCIS,ioos:station:WAVCIS:CSI16:2,2011-05-03T12:00:00Z,29.4012,-89.0355,10.0,23.823,11111222 
WAVCIS,ioos:station:WAVCIS:CSI16:2,2011-05-03T12:15:00Z,29.4012,-89.0355,10.0,23.808,11111222 
WAVCIS,ioos:station:WAVCIS:CSI16:2,2011-05-03T12:30:00Z,29.4012,-89.0355,10.0,23.843,11111222 
WAVCIS,ioos:station:WAVCIS:CSI16:2,2011-05-03T12:45:00Z,29.4012,-89.0355,10.0,23.858,11111222 
WAVCIS,ioos:station:WAVCIS:CSI16:2,2011-05-03T13:00:00Z,29.4012,-89.0355,10.0,23.89,11111222 
WAVCIS,ioos:station:WAVCIS:CSI16:2,2011-05-03T13:15:00Z,29.4012,-89.0355,10.0,23.872,11111222 
WAVCIS,ioos:station:WAVCIS:CSI16:2,2011-05-03T13:30:00Z,29.4012,-89.0355,10.0,23.94,11111222 
WAVCIS,ioos:station:WAVCIS:CSI16:2,2011-05-03T13:45:00Z,29.4012,-89.0355,10.0,23.879,11111222 
WAVCIS,ioos:station:WAVCIS:CSI16:2,2011-05-03T14:00:00Z,29.4012,-89.0355,10.0,23.927,11111222 
WAVCIS,ioos:station:WAVCIS:CSI16:2,2011-05-03T14:15:00Z,29.4012,-89.0355,10.0,23.909,11111222 
WAVCIS,ioos:station:WAVCIS:CSI16:2,2011-05-03T14:30:00Z,29.4012,-89.0355,10.0,23.915,11111222 
WAVCIS,ioos:station:WAVCIS:CSI16:2,2011-05-03T14:45:00Z,29.4012,-89.0355,10.0,23.973,11111222 